, FL

(GMT )
Crestview

Weather History for KEGI - February, 2013

Change the Weather History Date:

Saturday, February 23, 2013

  Actual Average Record
Temperature  
Mean Temperature 63 °F -  
Max Temperature 71 °F - - ()
Min Temperature 55 °F - - ()
Degree Days  
Heating Degree Days 2    
Growing Degree Days 13 (Base 50)    
Moisture  
Dew Point 63 °F    
Average Humidity 99    
Maximum Humidity 100    
Minimum Humidity 94    
Precipitation  
Precipitation 0.99 in - - ()
Sea Level Pressure  
Sea Level Pressure 29.88 in    
Wind  
Wind Speed 8 mph (NW)    
Max Wind Speed 14 mph    
Max Gust Speed 21 mph    
Visibility 8 miles    
Events Fog , Rain , Thunderstorm    
Averages and records for this station are not official NWS values.
T = Trace of Precipitation, MM = Missing Value Source: NWS Daily Summary

Daily Weather History Graph

Daily Weather History Graph

Search for Another Location

Airport or City:

Trip Planner

Search our weather history database for the weather conditions in past years. The results will help you decide how hot, cold, wet, or windy it might be!

Date:

Astronomy

Feb. 23, 2013 Rise Set
Actual Time 6:18 AM CST 5:40 PM CST
Civil Twilight 5:54 AM CST 6:04 PM CST
Nautical Twilight 5:26 AM CST 6:32 PM CST
Astronomical Twilight 4:58 AM CST 7:00 PM CST
Moon 3:54 PM CST (2/23) 4:35 AM CST (2/23)
Length of Visible Light 12h 10m
Length of Day
11h 21m
Waxing Gibbous, 95% of the Moon is Illuminated
Feb 23
Waxing Gibbous
Feb 25
Full
Mar 4
Last Quarter
Mar 11
New
Mar 19
First Quarter

Hourly Weather History & Observations

Time (CST) Temp. Dew Point Humidity Pressure Visibility Wind Dir Wind Speed Gust Speed Precip Events Conditions
12:06 AM 69.8 °F 69.8 °F 100% 29.90 in 2.5 mi South 6.9 mph - N/A   Overcast
12:11 AM 69.8 °F 69.8 °F 100% 29.90 in 2.0 mi SSW 11.5 mph - N/A   Overcast
12:16 AM 69.8 °F 69.8 °F 100% 29.90 in 3.0 mi SSW 13.8 mph 20.7 mph N/A   Overcast
12:21 AM 69.8 °F 69.8 °F 100% 29.90 in 5.0 mi South 13.8 mph 20.7 mph N/A   Overcast
12:26 AM 69.8 °F 69.8 °F 100% 29.89 in 5.0 mi South 12.7 mph - N/A   Overcast
12:36 AM 69.8 °F 69.8 °F 100% 29.89 in 6.0 mi SSW 13.8 mph - N/A   Overcast
12:58 AM 70.2 °F 69.8 °F 99% 29.89 in 5.0 mi SSW 11.5 mph 19.6 mph N/A   Overcast
1:18 AM 69.8 °F 69.8 °F 100% 29.88 in 10.0 mi SSW 11.5 mph - N/A   Overcast
1:48 AM 69.8 °F 69.8 °F 100% 29.86 in 10.0 mi SW 10.4 mph - N/A   Overcast
1:58 AM 70.2 °F 69.8 °F 99% 29.86 in 10.0 mi SSW 10.4 mph - N/A   Overcast
2:08 AM 69.8 °F 69.8 °F 100% 29.86 in 10.0 mi SW 11.5 mph 19.6 mph N/A   Overcast
2:27 AM 69.8 °F 69.8 °F 100% 29.86 in 9.0 mi SSW 10.4 mph - N/A Rain Light Rain
2:40 AM 69.8 °F 69.8 °F 100% 29.86 in 10.0 mi WSW 9.2 mph 19.6 mph N/A   Overcast
2:44 AM 69.8 °F 69.8 °F 100% 29.86 in 10.0 mi SW 6.9 mph 19.6 mph N/A   Light Drizzle
2:54 AM 71.6 °F 69.8 °F 94% 29.86 in 10.0 mi SW 9.2 mph - N/A   Overcast
2:58 AM 71.6 °F 69.8 °F 94% 29.86 in 10.0 mi SW 11.5 mph - 0.00 in   Overcast
3:03 AM 71.6 °F 69.8 °F 94% 29.86 in 10.0 mi SW 8.1 mph - N/A   Overcast
3:12 AM 69.8 °F 69.8 °F 100% 29.85 in 8.0 mi SW 8.1 mph - N/A Rain Light Rain
3:32 AM 69.8 °F 69.8 °F 100% 29.85 in 8.0 mi SW 5.8 mph - N/A Rain Light Rain
3:42 AM 71.6 °F 69.8 °F 94% 29.85 in 3.0 mi SSW 8.1 mph - N/A Rain Rain
3:52 AM 69.8 °F 69.8 °F 100% 29.85 in 3.0 mi SW 10.4 mph - N/A Rain Heavy Rain
3:58 AM 70.2 °F 69.8 °F 99% 29.85 in 3.0 mi South 11.5 mph - 0.15 in Rain , Thunderstorm Light Rain
4:09 AM 69.8 °F 69.8 °F 100% 29.85 in 10.0 mi SW 6.9 mph - N/A Thunderstorm Overcast
4:24 AM 69.8 °F 69.8 °F 100% 29.85 in 10.0 mi SW 10.4 mph - N/A   Mostly Cloudy
4:27 AM 69.8 °F 69.8 °F 100% 29.85 in 10.0 mi SSW 9.2 mph - N/A   Light Drizzle
4:42 AM 69.8 °F 69.8 °F 100% 29.85 in 10.0 mi SW 9.2 mph - N/A   Light Drizzle
4:47 AM 69.8 °F 69.8 °F 100% 29.86 in 10.0 mi SW 8.1 mph - N/A   Mostly Cloudy
4:58 AM 70.7 °F 70.3 °F 99% 29.86 in 10.0 mi SW 9.2 mph - 0.02 in   Overcast
5:06 AM 71.6 °F 69.8 °F 94% 29.86 in 10.0 mi SSW 9.2 mph - N/A Rain Light Rain
5:18 AM 69.8 °F 69.8 °F 100% 29.86 in 10.0 mi SW 6.9 mph - N/A   Overcast
5:23 AM 69.8 °F 69.8 °F 100% 29.86 in 10.0 mi SW 6.9 mph - N/A Rain Light Rain
5:38 AM 69.8 °F 69.8 °F 100% 29.86 in 2.0 mi SSW 8.1 mph - N/A Rain Heavy Rain
5:43 AM 69.8 °F 69.8 °F 100% 29.85 in 1.8 mi SSW 5.8 mph - N/A Rain Heavy Rain
5:48 AM 69.8 °F 69.8 °F 100% 29.86 in 2.5 mi West 9.2 mph - N/A Rain Light Rain
5:53 AM 69.8 °F 69.8 °F 100% 29.86 in 8.0 mi WSW 9.2 mph - N/A Rain Light Rain
5:58 AM 70.2 °F 69.8 °F 99% 29.87 in 9.0 mi West 9.2 mph - 0.19 in Rain Light Rain
6:03 AM 69.8 °F 69.8 °F 100% 29.87 in 4.0 mi NW 13.8 mph 18.4 mph N/A Rain Light Rain
6:06 AM 68.0 °F 68.0 °F 100% 29.87 in 3.0 mi NNW 13.8 mph 18.4 mph N/A Rain Light Rain
6:16 AM 64.4 °F 62.6 °F 94% 29.88 in 5.0 mi NNW 10.4 mph - N/A Rain Light Rain
6:26 AM 62.6 °F 62.6 °F 100% 29.88 in 9.0 mi NW 6.9 mph - N/A Rain Light Rain
6:36 AM 62.6 °F 62.6 °F 100% 29.88 in 10.0 mi NW 4.6 mph - N/A   Light Drizzle
6:38 AM 62.6 °F 62.6 °F 100% 29.88 in 10.0 mi NW 5.8 mph - N/A   Mostly Cloudy
6:43 AM 62.6 °F 60.8 °F 94% 29.88 in 10.0 mi NW 4.6 mph - N/A   Mostly Cloudy
6:58 AM 62.6 °F 60.8 °F 94% 29.89 in 10.0 mi North 4.6 mph - 0.12 in   Overcast
7:18 AM 60.8 °F 60.8 °F 100% 29.89 in 10.0 mi North 5.8 mph - N/A   Overcast
7:29 AM 60.8 °F 60.8 °F 100% 29.90 in 10.0 mi NNW 8.1 mph - N/A   Light Drizzle
7:49 AM 60.8 °F 60.8 °F 100% 29.91 in 4.0 mi NNW 8.1 mph - N/A Rain Heavy Rain
7:58 AM 60.6 °F 60.3 °F 99% 29.91 in 4.0 mi NNW 6.9 mph - 0.05 in Rain Light Rain
8:03 AM 60.8 °F 60.8 °F 100% 29.91 in 10.0 mi North 5.8 mph - N/A Rain Light Rain
8:04 AM 60.8 °F 60.8 °F 100% 29.91 in 10.0 mi Variable 4.6 mph - N/A   Mostly Cloudy
8:12 AM 60.8 °F 60.8 °F 100% 29.91 in 10.0 mi NNW 2.3 mph - N/A Rain Light Rain
8:22 AM 60.8 °F 60.8 °F 100% 29.91 in 2.0 mi NNW 1.2 mph - N/A Rain Heavy Rain
8:27 AM 60.8 °F 60.8 °F 100% 29.91 in 1.2 mi Calm Calm - N/A Rain Heavy Rain
8:32 AM 60.8 °F 60.8 °F 100% 29.93 in 1.0 mi WSW 2.3 mph - N/A Rain Heavy Rain
8:37 AM 60.8 °F 60.8 °F 100% 29.93 in 0.5 mi NW 5.8 mph - N/A Fog , Rain Heavy Rain
8:45 AM 60.8 °F 60.8 °F 100% 29.93 in 0.8 mi NW 8.1 mph - N/A Rain Heavy Rain
8:50 AM 60.8 °F 60.8 °F 100% 29.92 in 1.8 mi Variable 1.2 mph - N/A Rain Heavy Rain
8:55 AM 60.8 °F 60.8 °F 100% 29.92 in 2.0 mi Calm Calm - N/A Rain Rain
8:58 AM 60.8 °F 60.8 °F 100% 29.92 in 2.5 mi Calm Calm - 0.39 in Rain Light Rain
9:03 AM 60.8 °F 60.8 °F 100% 29.92 in 10.0 mi East 1.2 mph - N/A   Light Drizzle
9:14 AM 60.8 °F 60.8 °F 100% 29.91 in 10.0 mi Calm Calm - N/A   Scattered Clouds
9:30 AM 62.6 °F 62.6 °F 100% 29.90 in 10.0 mi SSE 8.1 mph - N/A   Partly Cloudy
9:50 AM 62.6 °F 62.6 °F 100% 29.89 in 10.0 mi SSE 6.9 mph - N/A   Mostly Cloudy
9:58 AM 63.0 °F 63.0 °F 100% 29.90 in 10.0 mi SW 2.3 mph - 0.00 in   Mostly Cloudy
10:02 AM 62.6 °F 62.6 °F 100% 29.91 in 10.0 mi West 3.5 mph - N/A Rain Light Rain
10:07 AM 62.6 °F 62.6 °F 100% 29.90 in 10.0 mi Variable 3.5 mph - N/A Rain Light Rain
10:16 AM 64.4 °F 64.4 °F 100% 29.90 in 10.0 mi NNW 3.5 mph - N/A   Mostly Cloudy
10:21 AM 64.4 °F 64.4 °F 100% 29.89 in 10.0 mi North 5.8 mph - N/A   Mostly Cloudy
10:31 AM 64.4 °F 64.4 °F 100% 29.91 in 10.0 mi NNW 6.9 mph - N/A   Mostly Cloudy
10:58 AM 62.6 °F 62.6 °F 100% 29.91 in 10.0 mi North 4.6 mph - 0.00 in   Overcast
11:11 AM 62.6 °F 62.6 °F 100% 29.90 in 10.0 mi North 3.5 mph - N/A   Light Drizzle
11:20 AM 62.6 °F 62.6 °F 100% 29.90 in 10.0 mi Variable 1.2 mph - N/A   Mostly Cloudy
11:25 AM 62.6 °F 62.6 °F 100% 29.89 in 10.0 mi North 1.2 mph - N/A   Scattered Clouds
11:35 AM 62.6 °F 62.6 °F 100% 29.89 in 10.0 mi NNE 3.5 mph - N/A   Mostly Cloudy
11:58 AM 63.1 °F 63.1 °F 100% 29.88 in 10.0 mi North 5.8 mph - 0.00 in   Overcast
12:08 PM 62.6 °F 62.6 °F 100% 29.89 in 10.0 mi North 3.5 mph - N/A   Overcast
12:32 PM 62.6 °F 62.6 °F 100% 29.88 in 10.0 mi NNW 2.3 mph - N/A   Mostly Cloudy
12:49 PM 62.6 °F 62.6 °F 100% 29.88 in 10.0 mi NW 6.9 mph - N/A Rain Light Rain
12:58 PM 63.1 °F 63.0 °F 99% 29.88 in 10.0 mi NNW 6.9 mph - 0.00 in   Light Drizzle
1:00 PM 62.6 °F 62.6 °F 100% 29.87 in 10.0 mi North 4.6 mph - N/A   Mostly Cloudy
1:34 PM 62.6 °F 60.8 °F 94% 29.86 in 10.0 mi NNW 9.2 mph - N/A   Overcast
1:58 PM 60.6 °F 60.1 °F 98% 29.86 in 10.0 mi North 8.1 mph - 0.00 in   Overcast
2:53 PM 59.0 °F 59.0 °F 100% 29.86 in 9.0 mi North 5.8 mph - N/A Rain Light Rain
2:58 PM 59.4 °F 58.5 °F 97% 29.86 in 8.0 mi North 6.9 mph - 0.01 in Rain Light Rain
3:09 PM 59.0 °F 59.0 °F 100% 29.86 in 10.0 mi North 4.6 mph - N/A   Overcast
3:43 PM 59.0 °F 59.0 °F 100% 29.92 in 10.0 mi WNW 6.9 mph - N/A   Light Drizzle
3:58 PM 58.6 °F 58.3 °F 99% 29.91 in 10.0 mi NW 4.6 mph - 0.00 in Rain Light Rain
4:18 PM 59.0 °F 57.2 °F 94% 29.89 in 9.0 mi North 2.3 mph - N/A Rain Light Rain
4:29 PM 57.2 °F 57.2 °F 100% 29.87 in 10.0 mi NE 4.6 mph - N/A   Overcast
4:31 PM 57.2 °F 57.2 °F 100% 29.86 in 10.0 mi NE 4.6 mph - N/A   Light Drizzle
4:41 PM 57.2 °F 57.2 °F 100% 29.86 in 10.0 mi NE 5.8 mph - N/A   Light Drizzle
4:44 PM 57.2 °F 57.2 °F 100% 29.84 in 10.0 mi ENE 6.9 mph - N/A Rain Light Rain
4:58 PM 57.7 °F 57.4 °F 99% 29.82 in 7.0 mi NE 5.8 mph - 0.05 in Rain Light Rain
5:03 PM 57.2 °F 57.2 °F 100% 29.79 in 10.0 mi East 10.4 mph - N/A Rain Light Rain
5:18 PM 57.2 °F 57.2 °F 100% 29.79 in 10.0 mi East 6.9 mph - N/A   Light Drizzle
5:19 PM 57.2 °F 57.2 °F 100% 29.80 in 10.0 mi East 6.9 mph - N/A   Mostly Cloudy
5:25 PM 57.2 °F 57.2 °F 100% 29.80 in 10.0 mi East 6.9 mph - N/A Rain Light Rain
5:35 PM 57.2 °F 57.2 °F 100% 29.81 in 10.0 mi East 3.5 mph - N/A Rain Light Rain
5:45 PM 57.2 °F 57.2 °F 100% 29.82 in 10.0 mi North 3.5 mph - N/A   Scattered Clouds
5:55 PM 57.2 °F 57.2 °F 100% 29.82 in 10.0 mi North 1.2 mph - N/A   Mostly Cloudy
5:56 PM 57.2 °F 57.2 °F 100% 29.83 in 10.0 mi North 1.2 mph - N/A Rain Light Rain
5:58 PM 57.2 °F 57.2 °F 100% 29.83 in 10.0 mi North 1.2 mph - 0.00 in Rain Light Rain
6:03 PM 57.2 °F 57.2 °F 100% 29.82 in 10.0 mi NNE 2.3 mph - N/A Rain Light Rain
6:22 PM 57.2 °F 57.2 °F 100% 29.85 in 10.0 mi NW 6.9 mph - N/A   Overcast
6:27 PM 57.2 °F 57.2 °F 100% 29.85 in 10.0 mi WNW 2.3 mph - N/A   Overcast
6:37 PM 57.2 °F 57.2 °F 100% 29.84 in 10.0 mi North - - N/A   Overcast
6:58 PM 57.9 °F 57.6 °F 99% 29.85 in 10.0 mi NW 5.8 mph - 0.01 in   Overcast
7:23 PM 57.2 °F 57.2 °F 100% 29.89 in 10.0 mi NW 10.4 mph - N/A   Overcast
7:48 PM 57.2 °F 57.2 °F 100% 29.90 in 10.0 mi NW 8.1 mph - N/A   Overcast
7:58 PM 57.2 °F 56.8 °F 99% 29.91 in 10.0 mi NNW 10.4 mph - N/A   Overcast
8:03 PM 57.2 °F 57.2 °F 100% 29.89 in 10.0 mi NNW 9.2 mph - N/A   Overcast
8:18 PM 57.2 °F 57.2 °F 100% 29.91 in 10.0 mi NW 8.1 mph - N/A   Overcast
8:48 PM 57.2 °F 57.2 °F 100% 29.92 in 10.0 mi NNW 8.1 mph - N/A   Overcast
8:58 PM 56.5 °F 56.1 °F 99% 29.91 in 10.0 mi NNW 10.4 mph - N/A   Overcast
9:08 PM 55.4 °F 55.4 °F 100% 29.92 in 10.0 mi NW 8.1 mph - N/A   Overcast
9:28 PM 55.4 °F 55.4 °F 100% 29.93 in 10.0 mi NNW 4.6 mph - N/A   Overcast
9:58 PM 56.3 °F 55.9 °F 99% 29.95 in 10.0 mi NW 3.5 mph - N/A   Overcast
11:13 PM 57.2 °F 55.4 °F 94% 29.95 in 10.0 mi North 4.6 mph - N/A   Overcast
11:58 PM 55.4 °F 55.4 °F 100% 29.95 in 10.0 mi North 6.9 mph - N/A   Mostly Cloudy